CZ-6 R/B (44784 NORAD) Tracking and Keplerian Element Data

This shows tracking and keplerian element data for the satellite.

Feedback or suggestion? Click here.




ElementValue
Catalog44784
NameCZ-6 R/B
Epoch Orbit315
Epoch Day339.45708076
Epoch Year2019
RAAN33.6125
Inclination45.0133
Eccentricity0.0087809
Argument of Perigee110.4877
Mean Anonmoly250.5367
Mean Motion14.17444587
Decay Rate-1.36E-06
L11 44784U 19076F 19339.45708076 -.00000136 00000-0 00000+0 0 9992
L22 44784 45.0133 33.6125 0087809 110.4877 250.5367 14.17444587 3157

Live tracking and technical data element details for CZ-6 R/B (NORAD 44784). CZ-6 R/B can be tracked NOW for your location showing map with azimuth and elevation plus other details from your city location.

Track the satellite on the map from your city or location and see movement details for azimuth, elevation, latitude, longitude, range, height, and movement on the map or in text.







IsCatalogInMostPopularTable: catalog: 44784, numindb: 8
Update: records affected: 1



GetName: 44784 CZ-6 R/B

Hit Count: updated at: Thu, 05 Dec 2019 18:00:19 GMT